528  
ASUS42 KMHX 242325  
RWRMHX  
WEATHER ROUNDUP FOR EASTERN NORTH CAROLINA  
NATIONAL WEATHER SERVICE NEWPORT/MOREHEAD CITY NC  
700 PM EDT THU JUN 24 2021  
 
NOTE: "FAIR" INDICATES FEW OR NO CLOUDS BELOW 12,000 FEET  
WITH NO SIGNIFICANT WEATHER AND/OR S TO VISIBILITY
 
 
NCZ015>017-031-032-045>047-102-103-250000-  
NORTH COAST  
 
CITY SKY/WX TMP DP RH WIND PRES REMARKS
 
EDENTON SUNNY 74 63 66 CALM 30.26R  
ELIZABETH CITY MOSUNNY 73 60 63 NE13 30.25F  
KITTY HAWK MOCLDY 69 61 74 N7 30.25R  
MANTEO CLOUDY 70 62 75 NE12 30.27R  
 

 
 
NCZ045>047-081-094-103-104-250000-  
CENTRAL COAST  
 
CITY SKY/WX TMP DP RH WIND PRES REMARKS
 
FRISCO CLOUDY 73 66 78 NE10G18 30.22S  
 

 
 
NCZ095-097-098-100-101-250000-  
SOUTHERN COAST  
 
CITY SKY/WX TMP DP RH WIND PRES REMARKS
 
PINEY ISLAND CLOUDY 76 66 71 NE14 30.22S  
BEAUFORT CLOUDY 75 64 68 NE9 30.21R  
CAPE CARTERET CLOUDY 77 61 57 NE13 30.22R  
JACKSONVILLE CLOUDY 78 60 53 NE10 30.20R  
WILMINGTON CLOUDY 78 63 59 E6 30.19S  
 

 
 
NCZ011>013-027>030-043-044-078>080-089-090>093-098-250000-  
COASTAL PLAIN  
 
CITY SKY/WX TMP DP RH WIND PRES REMARKS
 
AHOSKIE SUNNY 73 53 49 N6 30.26R  
ROCKY MOUNT SUNNY 79 55 43 E5 30.24S  
GREENVILLE SUNNY 77 55 47 NE6 30.26R  
WASHINGTON SUNNY 75 56 52 N7 30.24S  
GOLDSBORO MOSUNNY 76 56 49 NE10 30.22R  
KINSTON SUNNY 77 57 50 NE8 30.24R  
NEW BERN CLOUDY 76 60 57 NE10 30.23R  
HAVELOCK NOT AVBL  
KENANSVILLE MOSUNNY 77 59 53 CALM 30.23S  
RICHLANDS CLOUDY 77 61 57 NE7 30.22R  
CLINTON SUNNY 78 57 47 N5 30.24S  
ELIZABETHTOWN SUNNY 78 55 44 N5 30.22S  
WHITEVILLE SUNNY 78 54 43 N3 30.22S  
 

 
 
AMZ130-135-150-152-154-156-158-170-250-252-270-ANZ085-086-088-633-658-670-250000-  
MARINE OBSERVATIONS  
 
STATION/POSITION TIME TEMP WIND PRES WAVE SWELL
 
AIR SEA DIR/SP/G HT/PER HT/PER  
(UTC) (F) (DEG/KT/KT) (MB) (FT/S) (FT/S)  
64 E VA BEACH 2310 71 50/ 12/ 16 1024.1  
64 E VA BEACH 2300 70 71 N/A 6/ 9 2/10  
DUCK PIER 2242 69 20/ 16/ 18 1024.1  
2 E DUCK 2256 71 N/A 5/ 7 2/13  
10 NE DUCK 2256 73 N/A 5/ 6 2/14  
OREGON INLET 2242 71 73 10/ 12/ 16 N/A  
13E OREGON INLT 2256 75 N/A 5/ 7 3/ 7  
HATTERAS CG 2242 72 75 30/ 12/ 16 1023.6  
DIAMOND BUOY NOT AVBL  
CAPE LOOKOUT 2300 73 40/ 19/ 21 1023.3  
BEAUFORT LAB 2242 75 78 30/ 8/ 13 1023.8  
30 SE NEW RVR IN 2308 75 10/ 19/ 25 1021.7  
30 SE NEW RVR IN 2256 79 N/A 5/ 6 2/14  
27 SE WRIGHTSVLE 2308 76 78 50/ 19/ 29 1021.6  
5 SE WRIGHTSVLE 2308 76 78 50/ 17/ 23 1021.7  
27 SE WRIGHTSVL 2308 76 78 50/ 19/ 29 1021.6  
FRYING PAN BUOY 2300 74 40/ 16/ 19 1020.6  
225 S CAPE HAT 2300 75 80 180/ 12/ 16 1022.5  
41 SE CHARLESTON NOT AVBL  
 

 
 
 
CLICK HERE TO GO TO PREVIOUS BULLETINS.

The Nexlab NC Page Main Text Page